| time (UTC) | temp C | wind direction | speed KPH | gust KPH | rain 1hr cm | rain 24hr cm | rain mn cm | humidity % | barometer mb |
| 20260508005016 | 9 | 90 | 1.6 | 6.4 | 0.00 | 0.00 | 0.00 | 89 | 1015.5 |
| 20260508004036 | 8 | 90 | 3.2 | 8.0 | 0.00 | 0.00 | 0.00 | 90 | 1015.5 |
| 20260508003037 | 8 | 90 | 3.2 | 9.7 | 0.00 | 0.00 | 0.00 | 90 | 1015.5 |
| 20260508002036 | 8 | 90 | 1.6 | 4.8 | 0.00 | 0.00 | 0.00 | 90 | 1015.6 |
| 20260508001016 | 8 | 0.0 | 3.2 | 0.00 | 0.00 | 0.00 | 90 | 1015.7 | |
| 20260508000018 | 8 | 45 | 1.6 | 6.4 | 0.00 | 0.00 | 0.00 | 89 | 1015.8 |
| 20260507235038 | 8 | 0.0 | 3.2 | 0.00 | 0.00 | 0.00 | 89 | 1015.8 | |
| 20260507234039 | 8 | 0.0 | 3.2 | 0.00 | 0.00 | 0.00 | 89 | 1015.9 | |
| 20260507233018 | 8 | 68 | 1.6 | 4.8 | 0.00 | 0.00 | 0.00 | 88 | 1015.9 |
| 20260507232016 | 8 | 68 | 1.6 | 4.8 | 0.00 | 0.00 | 0.00 | 88 | 1016.0 |
| 20260507231016 | 8 | 0.0 | 1.6 | 0.00 | 0.00 | 0.00 | 88 | 1016.1 | |
| 20260507230018 | 8 | 0.0 | 1.6 | 0.00 | 0.00 | 0.00 | 87 | 1016.0 | |
| 20260507225119 | 8 | 0.0 | 0.0 | 0.00 | 0.00 | 0.00 | 87 | 1016.0 | |
| 20260507224018 | 8 | 0.0 | 0.0 | 0.00 | 0.00 | 0.00 | 86 | 1015.9 | |
| 20260507223016 | 8 | 0.0 | 3.2 | 0.00 | 0.00 | 0.00 | 86 | 1016.0 | |
| 20260507222016 | 8 | 0.0 | 1.6 | 0.00 | 0.00 | 0.00 | 86 | 1016.1 | |
| 20260507221038 | 9 | 0.0 | 0.0 | 0.00 | 0.00 | 0.00 | 86 | 1016.1 | |
| 20260507220036 | 9 | 0.0 | 0.0 | 0.00 | 0.00 | 0.00 | 86 | 1016.2 | |
| 20260507215016 | 9 | 0.0 | 3.2 | 0.00 | 0.00 | 0.00 | 86 | 1016.1 | |
| 20260507214016 | 9 | 90 | 1.6 | 4.8 | 0.00 | 0.00 | 0.00 | 86 | 1016.2 |
| 20260507213016 | 9 | 0.0 | 0.0 | 0.00 | 0.00 | 0.00 | 85 | 1016.3 | |
| 20260507212016 | 9 | 0.0 | 0.0 | 0.00 | 0.00 | 0.00 | 84 | 1016.2 | |
| 20260507211016 | 9 | 0.0 | 0.0 | 0.00 | 0.00 | 0.00 | 83 | 1016.3 | |
| 20260507210018 | 10 | 0.0 | 0.0 | 0.00 | 0.00 | 0.00 | 83 | 1016.4 | |
| 20260507205017 | 10 | 0.0 | 0.0 | 0.00 | 0.00 | 0.00 | 82 | 1016.5 | |
| 20260507204016 | 10 | 0.0 | 0.0 | 0.00 | 0.00 | 0.00 | 82 | 1016.4 | |
| 20260507203016 | 11 | 0.0 | 0.0 | 0.00 | 0.00 | 0.00 | 80 | 1016.3 | |
| 20260507202018 | 11 | 0.0 | 0.0 | 0.00 | 0.00 | 0.00 | 80 | 1016.2 | |
| 20260507201017 | 11 | 0.0 | 0.0 | 0.00 | 0.00 | 0.00 | 80 | 1016.1 | |
| 20260507200016 | 11 | 0.0 | 0.0 | 0.00 | 0.00 | 0.00 | 80 | 1015.9 | |
| 20260507195016 | 11 | 0.0 | 0.0 | 0.00 | 0.00 | 0.00 | 79 | 1015.8 | |
| 20260507194016 | 12 | 0.0 | 0.0 | 0.00 | 0.00 | 0.00 | 78 | 1015.7 | |
| 20260507193016 | 12 | 0.0 | 0.0 | 0.00 | 0.00 | 0.00 | 77 | 1015.5 | |
| 20260507192017 | 12 | 135 | 1.6 | 3.2 | 0.00 | 0.00 | 0.00 | 76 | 1015.5 |
| 20260507191017 | 12 | 113 | 1.6 | 4.8 | 0.00 | 0.00 | 0.00 | 75 | 1015.3 |
| 20260507190016 | 13 | 135 | 3.2 | 4.8 | 0.00 | 0.00 | 0.00 | 74 | 1015.3 |
| 20260507185016 | 13 | 90 | 3.2 | 6.4 | 0.00 | 0.00 | 0.00 | 74 | 1015.2 |
| 20260507184017 | 13 | 113 | 3.2 | 6.4 | 0.00 | 0.00 | 0.00 | 74 | 1015.2 |
| 20260507183016 | 13 | 113 | 4.8 | 8.0 | 0.00 | 0.00 | 0.00 | 73 | 1015.2 |
| 20260507182015 | 13 | 113 | 3.2 | 11.3 | 0.00 | 0.00 | 0.00 | 72 | 1015.2 |
| 20260507181016 | 13 | 113 | 4.8 | 11.3 | 0.00 | 0.00 | 0.00 | 71 | 1015.2 |
| 20260507180015 | 14 | 135 | 4.8 | 9.7 | 0.00 | 0.00 | 0.00 | 70 | 1015.2 |
| 20260507175016 | 14 | 135 | 4.8 | 9.7 | 0.00 | 0.00 | 0.00 | 70 | 1015.2 |
| 20260507174018 | 14 | 135 | 6.4 | 16.1 | 0.00 | 0.00 | 0.00 | 68 | 1015.1 |
| 20260507173016 | 15 | 135 | 4.8 | 12.9 | 0.00 | 0.00 | 0.00 | 67 | 1015.1 |
| 20260507172017 | 15 | 135 | 4.8 | 11.3 | 0.00 | 0.00 | 0.00 | 67 | 1015.2 |
| 20260507171015 | 15 | 135 | 4.8 | 12.9 | 0.00 | 0.00 | 0.00 | 66 | 1015.3 |
| 20260507170037 | 15 | 158 | 4.8 | 9.7 | 0.00 | 0.00 | 0.00 | 66 | 1015.4 |
| 20260507165016 | 15 | 158 | 4.8 | 11.3 | 0.00 | 0.00 | 0.00 | 65 | 1015.4 |
| 20260507164038 | 15 | 135 | 3.2 | 12.9 | 0.00 | 0.00 | 0.00 | 61 | 1015.4 |
| 20260507163017 | 16 | 135 | 4.8 | 12.9 | 0.00 | 0.00 | 0.00 | 61 | 1015.4 |
| 20260507162015 | 16 | 135 | 6.4 | 12.9 | 0.00 | 0.00 | 0.00 | 64 | 1015.3 |
| 20260507161017 | 16 | 158 | 6.4 | 14.5 | 0.00 | 0.00 | 0.00 | 65 | 1015.4 |
| 20260507160016 | 16 | 158 | 8.0 | 17.7 | 0.00 | 0.00 | 0.00 | 65 | 1015.5 |
| 20260507155017 | 16 | 180 | 9.7 | 17.7 | 0.00 | 0.00 | 0.00 | 65 | 1015.4 |
| 20260507154037 | 16 | 203 | 8.0 | 16.1 | 0.00 | 0.00 | 0.00 | 66 | 1015.4 |
| 20260507153015 | 16 | 225 | 8.0 | 14.5 | 0.00 | 0.00 | 0.00 | 65 | 1015.5 |
| 20260507152015 | 16 | 203 | 6.4 | 14.5 | 0.00 | 0.00 | 0.00 | 65 | 1015.6 |
| 20260507151015 | 16 | 180 | 4.8 | 14.5 | 0.00 | 0.00 | 0.00 | 63 | 1015.6 |
| 20260507150037 | 16 | 225 | 8.0 | 16.1 | 0.00 | 0.00 | 0.00 | 66 | 1015.8 |
| 20260507145017 | 16 | 180 | 6.4 | 14.5 | 0.00 | 0.00 | 0.00 | 66 | 1015.7 |
| 20260507144041 | 16 | 180 | 8.0 | 14.5 | 0.00 | 0.00 | 0.00 | 65 | 1015.7 |
| 20260507143017 | 16 | 180 | 6.4 | 17.7 | 0.00 | 0.00 | 0.00 | 64 | 1015.8 |
| 20260507142018 | 15 | 180 | 6.4 | 12.9 | 0.00 | 0.00 | 0.00 | 68 | 1015.8 |
| 20260507141017 | 15 | 158 | 6.4 | 20.9 | 0.00 | 0.00 | 0.00 | 66 | 1015.9 |
| 20260507140019 | 16 | 180 | 6.4 | 14.5 | 0.00 | 0.00 | 0.00 | 66 | 1016.0 |
| 20260507135041 | 16 | 180 | 8.0 | 17.7 | 0.00 | 0.00 | 0.00 | 66 | 1016.0 |
| 20260507134017 | 15 | 180 | 6.4 | 17.7 | 0.00 | 0.00 | 0.00 | 68 | 1015.9 |
| 20260507133017 | 15 | 180 | 9.7 | 20.9 | 0.00 | 0.00 | 0.00 | 71 | 1015.9 |
| 20260507132019 | 14 | 203 | 6.4 | 12.9 | 0.00 | 0.00 | 0.00 | 71 | 1016.0 |
| 20260507131017 | 14 | 180 | 6.4 | 17.7 | 0.00 | 0.00 | 0.00 | 72 | 1016.0 |
| 20260507130017 | 14 | 180 | 4.8 | 12.9 | 0.00 | 0.00 | 0.00 | 71 | 1016.1 |
| 20260507125017 | 14 | 180 | 8.0 | 16.1 | 0.00 | 0.00 | 0.00 | 70 | 1016.1 |
| 20260507124017 | 14 | 225 | 9.7 | 16.1 | 0.00 | 0.00 | 0.00 | 68 | 1016.1 |
| 20260507123019 | 15 | 225 | 8.0 | 17.7 | 0.00 | 0.00 | 0.00 | 67 | 1016.1 |
| 20260507122017 | 15 | 203 | 9.7 | 17.7 | 0.00 | 0.00 | 0.00 | 68 | 1016.1 |
| 20260507121017 | 15 | 203 | 9.7 | 19.3 | 0.00 | 0.00 | 0.00 | 66 | 1016.1 |
| 20260507120018 | 16 | 180 | 6.4 | 14.5 | 0.00 | 0.00 | 0.00 | 65 | 1016.0 |
| 20260507115017 | 16 | 158 | 9.7 | 19.3 | 0.00 | 0.00 | 0.00 | 65 | 1016.0 |
| 20260507114039 | 16 | 158 | 8.0 | 24.1 | 0.00 | 0.00 | 0.00 | 64 | 1016.1 |
| 20260507113037 | 16 | 158 | 9.7 | 19.3 | 0.00 | 0.00 | 0.00 | 63 | 1016.1 |
| 20260507112018 | 17 | 180 | 9.7 | 20.9 | 0.00 | 0.00 | 0.00 | 62 | 1016.1 |
| 20260507111017 | 16 | 158 | 6.4 | 14.5 | 0.00 | 0.00 | 0.00 | 62 | 1016.0 |
| 20260507110017 | 16 | 135 | 8.0 | 17.7 | 0.00 | 0.00 | 0.00 | 62 | 1016.0 |
| 20260507105017 | 16 | 158 | 8.0 | 14.5 | 0.00 | 0.00 | 0.00 | 61 | 1016.0 |
| 20260507104017 | 16 | 135 | 9.7 | 16.1 | 0.00 | 0.00 | 0.00 | 64 | 1016.1 |
| 20260507103037 | 16 | 135 | 8.0 | 17.7 | 0.00 | 0.00 | 0.00 | 61 | 1016.3 |
| 20260507102017 | 16 | 135 | 8.0 | 14.5 | 0.00 | 0.00 | 0.00 | 63 | 1016.3 |
| 20260507101017 | 16 | 158 | 6.4 | 16.1 | 0.00 | 0.00 | 0.00 | 64 | 1016.3 |
| 20260507100017 | 16 | 113 | 9.7 | 17.7 | 0.00 | 0.00 | 0.00 | 64 | 1016.3 |
| 20260507095017 | 16 | 135 | 8.0 | 22.5 | 0.00 | 0.00 | 0.00 | 62 | 1016.2 |
| 20260507094017 | 16 | 135 | 9.7 | 20.9 | 0.00 | 0.00 | 0.00 | 63 | 1016.3 |
| 20260507093017 | 16 | 135 | 9.7 | 19.3 | 0.00 | 0.00 | 0.00 | 64 | 1016.2 |
| 20260507092017 | 16 | 135 | 9.7 | 17.7 | 0.00 | 0.00 | 0.00 | 66 | 1016.2 |
| 20260507091018 | 15 | 135 | 9.7 | 19.3 | 0.00 | 0.00 | 0.00 | 66 | 1016.2 |
| 20260507090018 | 15 | 113 | 6.4 | 14.5 | 0.00 | 0.00 | 0.00 | 68 | 1016.2 |
| 20260507085017 | 15 | 135 | 8.0 | 14.5 | 0.00 | 0.00 | 0.00 | 68 | 1016.2 |
| 20260507084017 | 15 | 135 | 9.7 | 17.7 | 0.00 | 0.00 | 0.00 | 68 | 1016.2 |
| 20260507083017 | 15 | 135 | 9.7 | 16.1 | 0.00 | 0.00 | 0.00 | 70 | 1016.2 |
| 20260507082017 | 14 | 135 | 8.0 | 14.5 | 0.00 | 0.00 | 0.00 | 72 | 1016.2 |
| 20260507081017 | 14 | 135 | 6.4 | 17.7 | 0.00 | 0.00 | 0.00 | 73 | 1016.1 |
| 20260507080017 | 14 | 135 | 9.7 | 17.7 | 0.00 | 0.00 | 0.00 | 73 | 1016.1 |
| 20260507075018 | 14 | 135 | 6.4 | 14.5 | 0.00 | 0.00 | 0.00 | 73 | 1016.1 |
| 20260507074037 | 15 | 135 | 8.0 | 16.1 | 0.00 | 0.00 | 0.00 | 72 | 1016.0 |
| 20260507073017 | 14 | 113 | 4.8 | 9.7 | 0.00 | 0.00 | 0.00 | 74 | 1016.0 |
| 20260507072018 | 13 | 135 | 3.2 | 12.9 | 0.00 | 0.00 | 0.00 | 78 | 1016.0 |
| 20260507071017 | 12 | 113 | 4.8 | 11.3 | 0.00 | 0.00 | 0.00 | 81 | 1015.9 |
| 20260507070018 | 11 | 113 | 4.8 | 8.0 | 0.00 | 0.00 | 0.00 | 85 | 1015.8 |
| 20260507065017 | 10 | 113 | 4.8 | 11.3 | 0.00 | 0.00 | 0.00 | 89 | 1015.9 |
| 20260507064017 | 9 | 90 | 3.2 | 6.4 | 0.00 | 0.00 | 0.00 | 92 | 1015.8 |
| 20260507063018 | 8 | 90 | 3.2 | 6.4 | 0.00 | 0.00 | 0.00 | 93 | 1015.8 |
| 20260507062016 | 7 | 68 | 3.2 | 8.0 | 0.00 | 0.00 | 0.00 | 92 | 1015.7 |
| 20260507061017 | 7 | 90 | 1.6 | 3.2 | 0.00 | 0.00 | 0.00 | 92 | 1015.7 |
| 20260507060018 | 6 | 0.0 | 0.0 | 0.00 | 0.00 | 0.00 | 92 | 1015.6 | |
| 20260507055041 | 6 | 45 | 1.6 | 3.2 | 0.00 | 0.00 | 0.00 | 91 | 1015.6 |
| 20260507054016 | 6 | 0.0 | 0.0 | 0.00 | 0.00 | 0.00 | 91 | 1015.5 | |
| 20260507053018 | 6 | 0.0 | 0.0 | 0.00 | 0.00 | 0.00 | 91 | 1015.5 | |
| 20260507052016 | 6 | 0.0 | 0.0 | 0.00 | 0.00 | 0.00 | 91 | 1015.5 | |
| 20260507051016 | 6 | 0.0 | 0.0 | 0.00 | 0.00 | 0.00 | 90 | 1015.4 | |
| 20260507050018 | 5 | 45 | 1.6 | 4.8 | 0.00 | 0.00 | 0.00 | 90 | 1015.3 |
| 20260507045018 | 6 | 23 | 1.6 | 4.8 | 0.00 | 0.00 | 0.00 | 90 | 1015.3 |
| 20260507044016 | 6 | 45 | 1.6 | 3.2 | 0.00 | 0.00 | 0.00 | 90 | 1015.3 |
| 20260507043036 | 6 | 23 | 3.2 | 6.4 | 0.00 | 0.00 | 0.00 | 89 | 1015.3 |
| 20260507042016 | 6 | 45 | 3.2 | 6.4 | 0.00 | 0.00 | 0.00 | 89 | 1015.2 |
| 20260507041016 | 6 | 45 | 3.2 | 4.8 | 0.00 | 0.00 | 0.00 | 89 | 1015.2 |
| 20260507040016 | 6 | 45 | 3.2 | 6.4 | 0.00 | 0.00 | 0.00 | 89 | 1015.1 |
| 20260507035016 | 6 | 45 | 3.2 | 4.8 | 0.00 | 0.00 | 0.00 | 89 | 1015.2 |
| 20260507034036 | 6 | 45 | 3.2 | 4.8 | 0.00 | 0.00 | 0.00 | 89 | 1015.2 |
| 20260507033016 | 6 | 23 | 3.2 | 6.4 | 0.00 | 0.00 | 0.00 | 88 | 1015.1 |
| 20260507032016 | 6 | 45 | 3.2 | 4.8 | 0.00 | 0.00 | 0.00 | 88 | 1015.1 |
| 20260507031016 | 6 | 45 | 1.6 | 4.8 | 0.00 | 0.00 | 0.00 | 88 | 1015.1 |
| 20260507030038 | 6 | 23 | 1.6 | 4.8 | 0.00 | 0.00 | 0.00 | 88 | 1015.1 |
| 20260507025016 | 6 | 45 | 3.2 | 4.8 | 0.00 | 0.00 | 0.00 | 88 | 1015.0 |
| 20260507024016 | 7 | 45 | 3.2 | 6.4 | 0.00 | 0.00 | 0.00 | 88 | 1015.0 |
| 20260507023018 | 7 | 23 | 1.6 | 4.8 | 0.00 | 0.00 | 0.00 | 88 | 1014.9 |
| 20260507022016 | 7 | 0.0 | 3.2 | 0.00 | 0.00 | 0.00 | 88 | 1014.9 | |
| 20260507021038 | 7 | 23 | 1.6 | 4.8 | 0.00 | 0.00 | 0.00 | 88 | 1014.9 |
| 20260507020016 | 7 | 0.0 | 0.0 | 0.00 | 0.00 | 0.00 | 87 | 1014.8 | |
| 20260507015016 | 7 | 0.0 | 0.0 | 0.00 | 0.00 | 0.00 | 87 | 1014.7 | |
| 20260507014036 | 7 | 0.0 | 0.0 | 0.00 | 0.00 | 0.00 | 86 | 1014.8 | |
| 20260507013016 | 7 | 0.0 | 0.0 | 0.00 | 0.00 | 0.00 | 86 | 1014.8 | |
| 20260507012018 | 7 | 0.0 | 0.0 | 0.00 | 0.00 | 0.00 | 86 | 1014.8 | |
| 20260507010018 | 7 | 0.0 | 0.0 | 0.00 | 0.00 | 0.00 | 86 | 1014.8 |